Wind_Speed
23 23 20 21 24 23 25 24 23 22 25 20 21 31 32 31 24 30 32 29 29 27 28 26 24 24 23 22 21 20 20 19 16 15 17 18 19 19 18 19 20 21 21
25 25 24 22 25 25 25 28 24 23 26 23 21 36 35 33 23 35 32 31 31 29 29 27 25 24 22 20 22 23 22 21 19 18 17 17 18 18 19 20 21 22 23
26 25 27 26 26 27 28 26 25 25 25 23 26 31 29 24 26 33 30 31 33 30 29 29 26 23 22 20 20 24 24 22 21 20 19 19 19 20 19 19 20 21 22
26 25 26 27 27 28 27 23 26 26 25 27 30 32 29 27 31 28 31 29 32 30 29 29 30 26 23 21 21 26 28 26 25 24 24 23 22 22 20 20 21 23 25
26 26 26 28 29 28 26 26 26 28 27 29 29 36 34 29 29 26 33 29 32 32 28 30 31 25 25 22 23 26 29 28 28 29 28 28 27 26 25 23 24 26 29
25 29 27 28 30 29 28 25 25 28 29 30 35 41 33 30 32 27 26 28 33 32 31 29 25 26 25 23 26 26 26 27 31 31 32 31 31 31 30 31 31 31 30
26 29 28 28 30 26 29 30 29 28 30 33 35 40 30 31 33 30 26 24 23 26 28 27 25 25 25 26 29 31 34 35 33 35 35 34 34 34 34 36 37 35 33
25 27 29 28 28 26 32 33 31 29 30 34 39 36 32 26 30 26 27 27 24 23 22 23 24 25 25 28 32 32 35 37 38 37 38 37 38 39 41 41 39 36 36
24 26 28 29 27 31 32 38 34 31 29 32 33 33 40 22 29 28 30 31 28 25 25 24 23 22 23 27 30 31 33 35 39 42 40 40 41 42 44 45 46 44 42
23 25 28 26 27 30 29 36 41 34 34 34 40 36 37 35 28 29 30 28 27 27 26 23 23 26 29 29 33 33 34 34 35 37 41 39 41 41 42 47 46 43 39
23 25 26 25 26 29 25 32 37 40 37 34 36 36 34 30 29 26 26 29 28 26 25 26 27 30 33 34 30 31 33 32 30 32 33 39 44 44 41 37 36 37 37
21 24 24 25 23 28 21 28 34 37 35 37 35 38 35 29 28 29 30 32 28 27 29 30 29 31 31 29 29 28 29 29 28 26 29 31 31 32 27 28 28 29 26
21 21 22 23 20 23 21 28 35 34 34 37 33 33 31 30 28 25 26 26 30 31 32 29 30 29 29 26 22 21 21 20 21 20 21 22 22 18 19 21 24 26 26
21 20 20 20 17 13 19 25 33 37 36 37 36 37 26 22 27 28 29 29 27 28 28 27 25 20 18 16 17 20 20 20 17 18 19 21 21 22 21 22 23 24 26
20 19 20 18 15 11 13 17 26 32 32 32 34 24 20 24 28 26 26 23 20 19 22 21 20 19 18 20 22 23 21 20 20 21 23 26 26 23 24 26 25 25 25
21 20 19 19 16 13 13 14 20 18 13 24 25 14 18 21 23 19 20 22 21 23 20 23 18 18 18 17 18 19 23 23 25 25 26 23 23 24 26 26 28 29 29
23 22 18 20 18 16 14 13 16 13 13 13 12 18 21 23 22 21 24 26 24 25 21 23 18 15 17 21 21 19 19 23 25 24 25 26 26 27 28 29 30 32 34
24 24 21 23 20 19 19 17 16 23 21 20 20 25 27 25 22 21 21 21 21 20 16 17 19 21 22 24 23 23 24 23 24 27 29 31 33 33 34 35 36 38 39
26 27 26 25 25 22 20 19 19 21 24 23 23 21 27 23 21 22 23 21 21 20 20 20 23 26 26 25 25 25 27 28 29 29 29 28 30 33 37 39 39 40 40
29 29 30 29 27 25 22 20 20 22 22 22 22 23 26 25 27 26 25 24 24 23 24 23 23 25 24 27 28 28 30 32 32 32 32 33 34 36 37 38 40 41 42
32 31 33 34 31 26 23 23 22 22 23 24 25 27 28 26 28 26 24 26 27 27 29 28 26 28 27 29 32 33 35 35 35 36 36 38 40 44 47 49 48 50 52
33 33 35 35 34 32 32 31 31 30 29 30 30 29 30 32 30 30 30 31 33 34 33 34 34 33 32 35 33 35 38 40 40 43 44 48 52 49 50 55 54 52 54
39 38 37 39 38 38 38 39 38 38 36 35 35 35 37 38 37 37 36 37 37 37 37 38 38 40 40 40 38 41 47 42 43 52 52 53 63 59 58 62 52 61 64
45 43 41 40 41 41 42 43 43 42 42 42 41 42 43 43 42 41 41 40 40 39 39 42 42 41 42 42 46 47 47 51 55 55 55 57 61 63 64 64 66 65 63
51 48 44 43 42 46 48 50 49 47 46 44 43 38 37 34 33 33 35 40 41 40 38 40 45 45 45 47 48 50 51 53 56 58 59 61 63 64 65 65 66 66 67
53 54 52 49 47 47 52 55 57 51 47 46 47 47 42 36 36 34 36 37 38 46 46 47 53 52 52 52 53 54 56 57 59 61 62 64 64 65 66 68 69 70 71
Wind_Direction
278 277 277 284 284 285 287 281 269 253 242 241 256 218 230 241 229 211 219 217 223 225 226 234 237 244 254 264 265 268 271 269 263 267 276 282 291 290 286 282 281 281 281
278 275 275 280 282 286 283 278 273 250 238 238 248 217 227 241 236 215 223 219 224 227 233 237 240 247 255 263 261 268 270 272 271 271 273 278 285 290 291 288 281 279 280
282 276 277 278 283 282 284 277 269 250 235 220 213 220 228 237 224 215 223 228 227 229 241 247 247 255 255 262 259 260 270 272 271 269 274 278 283 284 286 286 286 283 282
282 277 275 275 280 283 280 275 270 244 231 216 220 226 230 236 226 218 229 225 231 242 241 246 249 255 254 257 266 260 262 268 268 270 272 275 277 279 281 285 286 286 284
280 278 275 273 279 282 275 268 273 239 225 216 225 220 224 237 227 219 228 235 236 241 245 245 248 250 255 260 270 272 260 262 271 273 276 280 280 278 278 279 280 284 285
280 278 279 278 276 272 271 270 264 236 223 215 211 217 222 239 222 221 230 235 239 242 241 244 244 249 259 265 270 268 265 265 269 274 276 279 282 280 279 280 279 281 283
287 282 283 281 276 266 270 262 261 232 224 222 213 223 217 235 228 230 229 228 228 237 237 239 247 256 261 270 270 269 270 270 276 271 270 274 277 279 281 284 283 282 281
292 286 287 282 279 275 274 259 244 228 231 232 227 230 222 227 231 232 229 232 233 248 239 244 252 258 268 277 278 276 271 269 268 269 266 269 272 275 277 278 281 281 283
293 287 285 287 282 284 278 243 231 223 233 226 227 229 223 214 225 233 236 237 239 240 244 247 251 263 272 279 282 283 280 280 274 266 266 272 276 280 279 278 278 280 281
291 289 284 292 282 298 268 242 227 218 225 220 214 225 227 232 234 225 230 235 232 235 239 246 262 271 277 280 282 282 280 282 283 272 269 271 275 276 279 279 276 278 283
291 290 284 292 286 299 261 232 225 214 216 218 217 224 230 236 236 224 227 234 236 239 249 258 264 276 281 283 278 283 284 285 284 276 269 269 275 283 286 282 281 280 275
290 290 290 291 288 301 243 215 209 214 218 218 220 222 227 229 224 229 235 239 239 245 261 264 271 277 279 280 281 279 279 281 280 282 282 283 285 287 286 285 284 281 278
289 291 286 290 292 305 231 214 213 218 214 219 221 215 228 225 227 229 240 248 251 253 258 265 270 272 273 275 276 279 283 288 288 283 281 283 281 285 290 290 286 284 280
283 288 279 279 284 290 245 216 214 209 215 218 216 217 232 233 234 236 248 253 251 256 258 262 264 263 269 279 283 281 288 283 278 287 289 288 287 283 287 290 285 284 285
274 282 277 266 275 271 249 259 224 216 213 216 224 225 220 227 234 260 253 252 252 249 252 251 259 270 273 277 283 283 281 276 279 285 288 285 277 274 273 277 276 275 273
264 271 272 261 256 259 255 243 235 210 215 224 221 242 251 240 230 237 249 248 248 253 256 256 254 264 271 277 286 290 270 271 278 285 286 286 289 286 282 282 280 281 279
258 261 264 258 247 248 246 234 219 235 216 214 226 233 236 244 248 244 246 248 249 254 250 252 257 253 262 274 282 290 284 270 275 274 278 283 283 283 283 282 280 279 280
256 254 255 257 241 237 239 232 222 223 222 228 236 250 240 244 241 236 235 238 244 248 248 253 264 266 270 271 273 277 275 275 277 280 283 286 287 286 285 284 283 284 286
254 249 250 251 250 234 232 233 230 227 230 228 231 231 230 235 234 239 239 240 243 250 252 251 259 266 268 276 279 280 278 277 277 276 278 279 283 287 287 286 289 289 289
254 248 246 248 247 245 233 230 231 229 228 229 225 227 231 233 236 241 247 249 252 252 255 254 255 265 273 277 277 275 275 278 281 285 287 285 287 282 280 283 287 289 291
256 249 245 245 247 249 244 238 236 233 231 232 231 233 238 237 241 244 247 248 251 254 256 259 261 265 264 263 269 273 280 279 279 279 281 282 281 283 284 286 285 285 287
253 254 250 248 246 245 245 243 242 241 240 240 239 240 244 246 248 252 253 255 256 257 262 263 262 262 262 266 271 271 275 277 280 280 281 284 282 284 290 286 280 282 284
248 248 251 251 246 244 244 244 243 245 247 250 252 252 252 252 251 252 254 257 260 262 266 269 270 271 273 274 274 276 282 281 280 285 285 280 280 285 286 284 276 276 284
247 247 248 251 252 251 251 250 250 248 250 252 252 255 256 256 255 256 258 260 262 265 268 273 275 275 276 274 274 276 276 277 279 282 281 280 281 284 284 283 282 283 284
248 247 249 251 250 251 250 249 251 251 253 255 253 247 249 253 258 263 268 269 268 269 271 275 275 276 277 277 279 280 280 280 280 282 283 284 285 285 285 286 287 287 287
249 249 251 249 255 256 260 256 255 245 248 250 248 252 254 254 253 263 260 263 255 262 261 260 271 273 275 278 279 281 282 283 284 285 285 285 285 286 285 286 286 286 287
Height
5774 5774 5774 5775 5774 5773 5772 5772 5772 5773 5776 5779 5782 5785 5786 5789 5797 5801 5803 5807 5810 5813 5816 5818 5821 5824 5825 5826 5827 5828 5829 5829 5830 5830 5832 5832 5832 5833 5833 5832 5833 5833 5834
5769 5768 5769 5770 5769 5767 5767 5767 5767 5768 5771 5774 5776 5780 5782 5786 5794 5797 5800 5804 5807 5810 5812 5815 5818 5820 5822 5823 5824 5824 5825 5826 5827 5827 5828 5828 5828 5829 5829 5829 5829 5829 5829
5765 5764 5763 5763 5763 5762 5762 5762 5762 5763 5766 5770 5774 5777 5780 5784 5789 5793 5796 5800 5803 5806 5809 5812 5815 5817 5818 5819 5819 5821 5821 5822 5823 5823 5823 5824 5824 5825 5825 5825 5825 5825 5824
5761 5759 5758 5758 5757 5756 5756 5757 5757 5758 5761 5766 5770 5772 5776 5780 5782 5791 5792 5796 5799 5803 5805 5807 5810 5812 5813 5814 5815 5816 5816 5817 5818 5819 5819 5819 5820 5820 5820 5820 5820 5820 5819
5756 5754 5753 5753 5752 5750 5750 5751 5752 5754 5756 5760 5764 5768 5773 5776 5779 5786 5788 5791 5794 5798 5800 5803 5805 5807 5809 5809 5810 5811 5811 5812 5813 5814 5814 5815 5815 5815 5815 5814 5814 5813 5813
5750 5749 5748 5747 5746 5746 5745 5747 5746 5748 5752 5757 5760 5762 5768 5772 5775 5781 5783 5785 5789 5792 5796 5798 5800 5802 5804 5804 5805 5805 5806 5807 5807 5808 5809 5809 5810 5810 5809 5808 5807 5807 5806
5743 5742 5741 5740 5739 5739 5739 5740 5741 5742 5746 5751 5754 5757 5764 5767 5772 5776 5779 5781 5785 5788 5791 5793 5795 5797 5799 5799 5800 5800 5800 5801 5801 5802 5802 5802 5802 5802 5802 5802 5800 5799 5798
5737 5735 5734 5733 5732 5731 5731 5732 5733 5737 5741 5744 5748 5752 5758 5764 5768 5771 5774 5778 5781 5783 5788 5788 5790 5792 5793 5793 5792 5792 5792 5793 5793 5793 5794 5794 5794 5794 5794 5794 5793 5792 5791
5730 5729 5728 5726 5724 5723 5720 5721 5726 5731 5735 5738 5741 5748 5753 5758 5762 5765 5767 5771 5775 5778 5780 5782 5784 5785 5786 5786 5786 5785 5784 5783 5783 5784 5784 5786 5786 5786 5786 5785 5784 5783 5783
5725 5723 5721 5719 5717 5713 5711 5712 5718 5725 5729 5732 5738 5743 5747 5753 5755 5758 5762 5764 5769 5772 5774 5776 5777 5779 5779 5781 5777 5777 5776 5775 5774 5774 5775 5777 5776 5776 5776 5775 5774 5775 5774
5719 5717 5715 5713 5710 5706 5703 5705 5709 5718 5724 5728 5733 5738 5742 5748 5750 5754 5757 5760 5762 5766 5767 5769 5771 5771 5772 5771 5771 5769 5767 5766 5765 5765 5766 5767 5768 5768 5767 5766 5766 5765 5765
5713 5712 5709 5707 5704 5700 5697 5700 5706 5712 5718 5723 5728 5732 5737 5742 5745 5748 5751 5754 5756 5759 5761 5762 5763 5764 5762 5762 5762 5761 5760 5758 5759 5758 5759 5760 5760 5760 5758 5758 5758 5758 5758
5708 5707 5705 5702 5699 5695 5694 5696 5702 5708 5713 5718 5722 5727 5732 5736 5738 5743 5746 5749 5751 5753 5754 5756 5755 5754 5755 5754 5755 5754 5754 5754 5752 5752 5753 5753 5754 5753 5753 5753 5753 5753 5752
5703 5702 5701 5699 5697 5695 5694 5695 5699 5704 5709 5713 5717 5722 5725 5729 5732 5736 5739 5742 5743 5745 5747 5747 5748 5749 5749 5749 5750 5749 5749 5749 5748 5748 5748 5748 5749 5748 5748 5747 5746 5746 5745
5698 5698 5697 5696 5694 5693 5694 5695 5696 5701 5705 5709 5714 5717 5719 5724 5728 5730 5733 5734 5736 5737 5739 5740 5741 5742 5742 5743 5743 5742 5743 5743 5744 5743 5743 5742 5741 5740 5739 5739 5737 5736 5736
5693 5693 5693 5692 5692 5691 5691 5692 5694 5698 5701 5705 5708 5711 5714 5717 5721 5723 5725 5727 5728 5729 5732 5733 5734 5735 5735 5735 5735 5734 5734 5736 5736 5736 5735 5734 5734 5733 5732 5730 5730 5729 5728
5687 5688 5687 5689 5688 5689 5689 5690 5691 5694 5697 5700 5703 5707 5710 5712 5715 5717 5718 5719 5720 5722 5726 5725 5726 5727 5730 5729 5727 5728 5727 5728 5730 5729 5727 5726 5726 5725 5724 5723 5721 5720 5719
5681 5682 5682 5684 5684 5685 5686 5687 5689 5691 5693 5695 5699 5701 5703 5705 5708 5710 5711 5712 5714 5715 5717 5718 5717 5719 5721 5721 5721 5722 5722 5722 5722 5721 5719 5718 5717 5716 5715 5713 5711 5710 5710
5676 5677 5677 5678 5679 5680 5682 5684 5686 5687 5689 5691 5694 5696 5698 5700 5701 5702 5704 5705 5707 5708 5711 5713 5712 5712 5713 5711 5711 5713 5713 5713 5713 5713 5711 5711 5710 5708 5705 5702 5701 5700 5698
5670 5670 5671 5672 5673 5675 5676 5678 5681 5683 5685 5687 5688 5690 5691 5693 5694 5695 5697 5699 5701 5703 5704 5705 5706 5704 5705 5703 5704 5705 5705 5704 5704 5703 5702 5700 5699 5696 5695 5693 5691 5689 5686
5662 5663 5664 5666 5669 5672 5673 5674 5675 5677 5679 5681 5682 5683 5685 5687 5687 5689 5691 5692 5692 5693 5693 5694 5696 5696 5698 5697 5696 5697 5696 5696 5695 5693 5692 5691 5688 5687 5684 5683 5680 5677 5675
5655 5655 5657 5660 5663 5665 5666 5667 5669 5671 5672 5672 5674 5676 5677 5678 5681 5681 5683 5684 5684 5683 5685 5684 5685 5687 5689 5688 5689 5688 5687 5686 5685 5684 5682 5679 5675 5674 5671 5668 5668 5664 5662
5644 5646 5648 5650 5654 5657 5658 5659 5660 5661 5663 5665 5667 5668 5669 5670 5672 5673 5673 5673 5674 5673 5674 5674 5674 5674 5675 5675 5676 5676 5673 5672 5671 5669 5667 5666 5662 5657 5657 5656 5653 5650 5646
5635 5637 5639 5641 5645 5648 5649 5650 5651 5652 5654 5654 5656 5658 5659 5660 5662 5662 5662 5662 5662 5663 5663 5663 5663 5662 5662 5662 5661 5660 5659 5657 5655 5653 5652 5650 5647 5643 5640 5638 5635 5631 5627
5624 5626 5629 5631 5633 5635 5636 5639 5639 5640 5642 5645 5646 5648 5649 5650 5651 5652 5651 5652 5652 5652 5652 5650 5651 5650 5649 5648 5647 5645 5643 5642 5639 5638 5636 5633 5630 5626 5622 5618 5615 5612 5608
5611 5610 5616 5618 5620 5622 5623 5623 5624 5629 5632 5633 5634 5635 5636 5640 5639 5640 5640 5638 5639 5640 5639 5639 5638 5637 5635 5633 5632 5630 5628 5625 5623 5621 5618 5615 5611 5608 5605 5601 5596 5591 5586